Regional Weather Roundup
Issued by NWS Goodland, KS

Home | Current Version | Previous Version | Text Only | Print | Product List | Glossary Off
Versions: 1 2 3 4 5 6 7 8 9 10 11 12 13 14 15 16 17 18 19 20 21 22 23 24 25 26 27 28 29 30 31 32 33 34 35 36 37 38 39 40 41 42 43 44 45 46 47 48 49 50

000
ASUS43 KGLD 221808
RWRGLD

GOODLAND FORECAST AREA HOURLY WEATHER ROUNDUP
NATIONAL WEATHER SERVICE GOODLAND KS
1200 PM MDT FRI SEP 22 2017

...OFFICIAL OBSERVATIONS...

CITY           SKY/WX    TMP DP  RH WIND       PRES   REMARKS
GOODLAND KS    MOSUNNY   89  45  21 S20G33    29.78F
HILL CITY KS   SUNNY     97  57  26 S25G37    29.78F
IMPERIAL NEB   PTSUNNY   81  41  24 VRB6      29.77F
MCCOOK NEB     LGT RAIN  96  52  22 S25G38    29.73F
AKRON CO       CLOUDY    75  37  25 SE12      29.82F
BURLINGTON CO  CLOUDY    89  39  17 SW23G33   29.82F
LIMON CO         N/A    N/A N/A N/A MISG      29.86F
$$

...UNOFFICIAL OBSERVATIONS...

CITY           SKY/WX    TMP DP  RH WIND       PRES   REMARKS
LENORA KS        N/A     92  32  12 MISG        N/A
NORTON KS      SUNNY     95  48  20 S25G35    29.76F
SHARON SPRINGS   N/A     87  56  34 S23G30      N/A
KIT CARSON CO    N/A     86  40  19 MISG        N/A
YUMA CO        FAIR      70  27  19 NE5       29.80F
$$




USA.gov is the U.S. government's official web portal to all federal, state and local government web resources and services.